Location: Voorhees State Park
(40.6817°N, 74.8983°W)
Time: 05:53:46
(UTC-05:00)

Daily predictions for brighter satellites

Satellite Brightness Start Highest point End
(mag) Time Altitude Azimuth Time Altitude Azimuth Time Altitude Azimuth
Cosmos 2237 Rocket 4.0 03:54:16 26° ESE 03:54:16 26° ESE 03:56:58 10° SE
SL-16 R/B 4.3 03:53:48 20° NE 03:54:28 20° NE 03:58:35 10° E
Cosmos 2297 Rocket 3.6 04:05:02 35° E 04:05:02 35° E 04:09:15 10° NE
Cosmos 2227 Rocket 3.5 04:18:47 34° NE 04:18:47 34° NE 04:21:56 10° NNE
USA 234 4.5 04:32:24 10° E 04:38:04 32° NNE 04:40:03 27° N
Cosmos 1980 4.5 04:40:45 42° SSE 04:40:45 42° SSE 04:44:23 10° SSE
Cosmos 2082 4.0 04:45:40 58° NNE 04:45:40 58° NNE 04:50:14 10° NNE
Cosmos 2333 Rocket 3.4 04:50:14 29° S 04:50:14 29° S 04:53:02 10° S
Cosmos 2219 Rocket 4.2 05:11:11 14° SSW 05:11:11 14° SSW 05:11:58 10° SSW
Cosmos 1743 Rocket 3.5 05:09:30 66° NNE 05:10:04 82° E 05:14:28 10° S
Cosmos 2233 Rocket 4.0 05:06:13 10° S 05:12:27 82° E 05:18:46 10° N
Cosmos 1842 Rocket 3.6 05:14:50 10° S 05:19:09 79° E 05:23:31 10° N
COSMO-SKYMED 1 2.4 05:15:34 10° SSE 05:19:54 86° WSW 05:21:11 46° NNW
NOAA 6 4.0 05:21:38 10° N 05:26:46 61° WNW 05:31:51 10° SSW
Cosmos 968 Rocket 3.5 05:22:03 10° SSW 05:27:18 82° ESE 05:32:36 10° NNE
SeaSat 1 4.4 05:24:04 10° N 05:25:11 15° NNW 05:25:11 15° NNW
CSL-04 Rocket 4.3 05:24:22 10° NNE 05:29:36 56° E 05:34:46 10° S
Cosmos 1816 Rocket 4.5 05:24:35 10° NNW 05:30:48 61° W 05:36:56 10° S
BREEZE-M DEB (TANK) 4.3 05:31:43 19° N 05:31:43 19° N 05:33:13 10° NE
Cosmos 2151 3.2 05:30:03 10° N 05:34:16 67° E 05:38:28 10° SSE
Cosmos 2237 Rocket 3.1 05:36:10 28° WSW 05:36:10 28° WSW 05:40:20 10° SSW
Cosmos 1500 Rocket 3.4 05:34:37 21° NNW 05:37:34 70° W 05:42:00 10° S
USA 229 DEB 3.8 05:33:34 26° NW 05:37:42 62° WSW 05:44:48 10° SSE
USA 229 3.8 05:33:38 26° NW 05:37:48 63° WSW 05:44:55 10° SSE
SL-16 R/B 2.1 05:35:44 25° NW 05:39:06 65° WSW 05:44:41 10° S
Tsikada Rocket 4.3 05:34:30 10° NNW 05:40:25 41° W 05:46:16 10° SSW
Cosmos 2346 Rocket 4.3 05:35:55 10° NNW 05:42:00 69° W 05:48:01 10° S
Cosmos 2297 Rocket 2.9 05:46:57 29° W 05:48:09 32° WNW 05:53:12 10° N
NOSS 3-1 (A) 4.5 05:44:01 10° NNW 05:51:28 63° NE 05:59:45 10° SE
Meteor 1-11 4.3 05:45:39 10° N 05:51:29 89° W 05:57:18 10° S
Cosmos 220 Rocket 4.2 05:48:42 10° SW 05:52:59 48° WNW 05:57:15 10° N
Cosmos 1340 Rocket 2.8 05:50:07 10° N 05:54:04 78° E 05:58:00 10° SSE
Cosmos 1777 Rocket 4.1 05:52:12 10° SSW 05:57:25 80° ESE 06:02:38 10° NNE
Aureole 2 Rocket 3.8 05:57:16 27° W 05:57:45 28° W 06:01:19 10° SSW
Cosmos 2227 Rocket 3.4 06:00:39 20° NW 06:00:53 20° NW 06:05:00 10° N
Cosmos 1464 Rocket 4.0 05:55:01 10° S 06:01:21 88° ESE 06:07:41 10° N
Meteor 1-16 Rocket 4.1 05:56:21 10° SSW 06:01:44 60° WNW 06:07:02 10° N
Cosmos 1271 Rocket 2.6 05:59:22 10° SSW 06:03:10 64° W 06:06:57 10° N
IDEFIX/ARIANE 42P 3.2 05:59:29 10° NNE 06:04:43 60° E 06:09:54 10° S
SL-14 R/B 3.6 06:03:04 10° NNW 06:06:59 47° W 06:10:52 10° SSW
OAO 2 Rocket 4.1 06:04:02 16° WSW 06:07:30 41° S 06:12:08 10° ESE
ISS -3.4 06:06:00 28° WNW 06:07:34 76° SW 06:10:48 10° SE
Cosmos 304 Rocket 4.3 06:05:04 18° NW 06:08:08 36° WSW 06:12:29 10° SSW
Meteor 1-28 Rocket 3.8 06:04:45 10° SSW 06:08:11 33° W 06:10:38 16° NW
Meteor 1-4 Rocket 3.6 06:09:24 10° SW 06:12:29 24° WNW 06:15:38 10° NNW
YAOGAN 1 3.4 06:10:52 10° NNE 06:15:09 55° E 06:19:23 10° S
Meteor 2-1 Rocket 4.2 06:14:20 10° SSW 06:19:53 67° W 06:25:35 10° N
CZ-4 R/B 1.3 06:15:58 10° N 06:20:01 85° WNW 06:24:07 10° SSW
Meteor 2-12 Rocket 4.4 06:14:12 10° SSW 06:20:16 67° W 06:26:26 10° N
USA 234 3.3 06:13:57 10° SE 06:20:31 84° NE 06:27:07 10° NW
Cosmos 1072 Rocket 4.5 06:14:36 10° SSW 06:20:41 59° W 06:26:46 10° N
Cosmos 1538 Rocket 4.4 06:16:48 10° NNW 06:21:54 45° WSW 06:26:58 10° S
Cosmos 1943 4.1 06:17:24 10° NNW 06:22:57 50° ENE 06:28:26 10° SE
ERBS 2.3 06:23:54 14° NW 06:26:48 83° SW 06:30:12 10° SE
Aureole 1 4.4 06:24:05 10° SW 06:27:02 51° WNW 06:30:27 10° N
Cosmos 1626 2.1 06:23:49 10° N 06:27:35 88° W 06:31:18 10° S
Cosmos 1666 Rocket 3.7 06:23:36 10° N 06:28:05 81° E 06:32:32 10° S
Cosmos 923 Rocket 4.0 06:24:15 10° NNW 06:29:29 85° WSW 06:34:44 10° SSE
Meteor 1-29 3.9 06:27:35 10° SSE 06:30:58 50° ENE 06:34:23 10° N
NOSS 3-1 (C) 4.2 06:25:39 10° NW 06:33:14 65° WSW 06:41:30 10° SSE
Ariane Rocket 3.7 06:29:13 10° N 06:33:39 30° WNW 06:38:04 10° SW
PSLV R/B 3.7 06:30:29 10° WSW 06:33:51 62° SSE 06:37:09 10° E
Cosmos 2221 3.0 06:32:10 10° SSW 06:36:12 38° WNW 06:40:16 10° N
Coronas F rocket 1.5 06:33:57 10° N 06:36:20 59° E 06:38:42 10° SSE
Cosmos 1680 Rocket 3.6 06:33:30 10° NNW 06:38:50 88° ENE 06:44:10 10° SSE
SL-8 R/B 4.0 06:34:13 10° NW 06:38:54 60° NNE 06:43:38 10° ESE
TELKOM 3 3.5 06:36:47 10° W 06:39:13 37° NNW 06:41:15 10° NE
MSX 4.0 06:36:38 10° NNE 06:42:26 83° ESE 06:48:13 10° SSW
Cosmos 1603 3.9 06:37:24 10° NNW 06:42:52 53° WSW 06:48:19 10° S
CORIOLIS 4.2 06:37:44 10° NNE 06:43:11 86° WNW 06:48:37 10° SSW
CZ-4 R/B 4.4 06:39:12 10° NNE 06:43:21 88° WNW 06:47:27 10° SSW
Cosmos 389 Rocket 2.5 06:45:14 10° SSW 06:48:53 79° W 06:52:35 10° N
Cosmos 1908 3.1 06:45:57 10° SSW 06:49:45 72° W 06:53:35 10° N
Cosmos 2263 Rocket 2.8 06:45:26 10° S 06:51:01 67° ESE 06:56:42 10° NNE
AQUARIUS 4.4 06:48:42 10° N 06:53:02 48° WNW 06:57:21 10° SW
Cosmos 2058 4.3 06:50:40 10° NW 06:53:36 19° W 06:56:31 10° SW
Cosmos 1634 Rocket 4.4 06:52:23 10° S 06:58:40 72° E 07:04:56 10° NNE
